TimeEST,TemperatureF,Dew PointF,Humidity,Sea Level PressureIn,VisibilityMPH,Wind Direction,Wind SpeedMPH,Gust SpeedMPH,PrecipitationIn,Events,Conditions,WindDirDegrees,DateUTC
12:53 AM,62.1,53.1,72,30.27,10.0,NE,4.6,-,N/A,,Mostly Cloudy,50,2012-11-11 05:53:00
1:53 AM,61.0,53.1,75,30.26,10.0,ENE,3.5,-,N/A,,Partly Cloudy,60,2012-11-11 06:53:00
2:53 AM,61.0,53.1,75,30.25,10.0,NE,5.8,-,N/A,,Clear,40,2012-11-11 07:53:00
3:53 AM,60.1,53.1,78,30.25,10.0,Calm,Calm,-,N/A,,Clear,0,2012-11-11 08:53:00
4:53 AM,59.0,53.1,81,30.26,10.0,NE,3.5,-,N/A,,Partly Cloudy,40,2012-11-11 09:53:00
5:53 AM,59.0,53.1,81,30.26,10.0,NE,3.5,-,N/A,,Clear,40,2012-11-11 10:53:00
6:53 AM,59.0,54.0,83,30.27,10.0,NE,3.5,-,N/A,,Partly Cloudy,50,2012-11-11 11:53:00
7:53 AM,63.0,55.0,75,30.29,10.0,NE,4.6,-,N/A,,Clear,40,2012-11-11 12:53:00
8:53 AM,66.2,55.4,68,30.30,10.0,NE,6.9,-,N/A,,Partly Cloudy,40,2012-11-11 13:53:00
9:53 AM,73.0,55.9,55,30.30,10.0,ENE,6.9,-,N/A,,Partly Cloudy,60,2012-11-11 14:53:00
10:53 AM,75.9,57.0,52,30.30,10.0,Variable,5.8,-,N/A,,Mostly Cloudy,0,2012-11-11 15:53:00
11:53 AM,78.1,57.9,50,30.27,10.0,ESE,9.2,-,N/A,,Scattered Clouds,110,2012-11-11 16:53:00
12:53 PM,79.0,55.9,45,30.25,10.0,Variable,6.9,18.4,N/A,,Mostly Cloudy,0,2012-11-11 17:53:00
1:53 PM,78.1,57.0,48,30.23,10.0,ENE,6.9,20.7,N/A,,Mostly Cloudy,70,2012-11-11 18:53:00
2:53 PM,80.1,57.0,45,30.22,10.0,ESE,9.2,-,N/A,,Mostly Cloudy,110,2012-11-11 19:53:00
3:53 PM,78.1,60.1,54,30.23,10.0,ESE,8.1,-,N/A,,Mostly Cloudy,120,2012-11-11 20:53:00
4:53 PM,77.0,57.9,52,30.22,10.0,East,8.1,-,N/A,,Scattered Clouds,80,2012-11-11 21:53:00
5:53 PM,75.0,57.9,55,30.22,10.0,ENE,5.8,-,N/A,,Partly Cloudy,70,2012-11-11 22:53:00
6:53 PM,73.0,57.9,59,30.25,10.0,Variable,4.6,-,N/A,,Partly Cloudy,0,2012-11-11 23:53:00
7:53 PM,72.0,57.9,61,30.26,10.0,ENE,5.8,-,N/A,,Mostly Cloudy,60,2012-11-12 00:53:00
8:53 PM,71.1,57.9,63,30.26,10.0,ENE,4.6,-,N/A,,Partly Cloudy,70,2012-11-12 01:53:00
9:53 PM,69.1,59.0,70,30.26,10.0,ENE,4.6,-,N/A,,Clear,70,2012-11-12 02:53:00
10:53 PM,68.0,60.1,76,30.25,10.0,East,4.6,-,N/A,,Clear,80,2012-11-12 03:53:00
11:53 PM,66.9,60.1,79,30.24,10.0,East,3.5,-,N/A,,Partly Cloudy,80,2012-11-12 04:53:00